Time,TemperatureF,DewpointF,PressureIn,WindDirection,WindDirectionDegrees,WindSpeedMPH,WindSpeedGustMPH,Humidity,HourlyPrecipIn,Conditions,Clouds,dailyrainin,SoftwareType,DateUTC
2013-02-18 00:02:00,32.0,29.0,29.55,NNW,342,16.0,26.0,88,0.00,,,0.00,,2013-02-18 06:02:00,
2013-02-18 00:11:00,32.0,29.0,29.55,NNW,342,16.0,26.0,88,0.00,,,0.00,,2013-02-18 06:11:00,
2013-02-18 00:21:00,31.0,28.0,29.56,North,351,15.0,25.0,90,0.00,,,0.00,,2013-02-18 06:21:00,
2013-02-18 00:32:00,29.0,27.0,29.57,NNW,342,16.0,29.0,91,0.00,,,0.00,,2013-02-18 06:32:00,
2013-02-18 00:41:00,29.0,27.0,29.57,NNW,342,16.0,29.0,91,0.00,,,0.00,,2013-02-18 06:41:00,
2013-02-18 00:52:00,27.0,25.0,29.59,North,355,18.0,26.0,91,0.00,,,0.00,,2013-02-18 06:52:00,
2013-02-18 01:01:00,25.0,23.0,29.61,North,355,18.0,29.0,91,0.00,,,0.00,,2013-02-18 07:01:00,
2013-02-18 01:11:00,25.0,23.0,29.61,North,355,18.0,29.0,91,0.00,,,0.00,,2013-02-18 07:11:00,
2013-02-18 01:22:00,24.0,22.0,29.62,North,355,16.0,30.0,91,0.00,,,0.00,,2013-02-18 07:22:00,
2013-02-18 01:32:00,24.0,22.0,29.64,North,360,13.0,24.0,92,0.00,,,0.00,,2013-02-18 07:32:00,
2013-02-18 01:42:00,24.0,22.0,29.64,North,360,13.0,24.0,92,0.00,,,0.00,,2013-02-18 07:42:00,
2013-02-18 01:52:00,23.0,21.0,29.65,North,360,17.0,24.0,92,0.00,,,0.00,,2013-02-18 07:52:00,
2013-02-18 02:01:00,22.0,20.0,29.67,NNW,343,14.0,23.0,92,0.00,,,0.00,,2013-02-18 08:01:00,
2013-02-18 02:11:00,22.0,20.0,29.67,NNW,343,14.0,23.0,92,0.00,,,0.00,,2013-02-18 08:11:00,
2013-02-18 02:21:00,21.0,19.0,29.68,North,5,14.0,30.0,91,0.00,,,0.00,,2013-02-18 08:21:00,
2013-02-18 02:32:00,21.0,19.0,29.69,North,360,12.0,21.0,91,0.00,,,0.00,,2013-02-18 08:32:00,
2013-02-18 02:42:00,21.0,19.0,29.69,North,360,12.0,21.0,91,0.00,,,0.00,,2013-02-18 08:42:00,
2013-02-18 02:52:00,20.0,18.0,29.70,North,355,12.0,21.0,90,0.00,,,0.00,,2013-02-18 08:52:00,
2013-02-18 03:02:00,20.0,18.0,29.70,NNE,28,16.0,23.0,90,0.00,,,0.00,,2013-02-18 09:02:00,
2013-02-18 03:11:00,20.0,18.0,29.70,NNE,28,16.0,23.0,90,0.00,,,0.00,,2013-02-18 09:11:00,
2013-02-18 03:22:00,19.0,17.0,29.72,NNW,340,16.0,25.0,90,0.00,,,0.00,,2013-02-18 09:22:00,
2013-02-18 03:31:00,19.0,17.0,29.73,North,5,15.0,22.0,90,0.00,,,0.00,,2013-02-18 09:31:00,
2013-02-18 03:42:00,19.0,17.0,29.73,North,5,15.0,22.0,90,0.00,,,0.00,,2013-02-18 09:42:00,
2013-02-18 03:52:00,19.0,17.0,29.73,NNW,339,14.0,28.0,90,0.00,,,0.00,,2013-02-18 09:52:00,
2013-02-18 04:01:00,19.0,17.0,29.75,NW,322,14.0,24.0,90,0.00,,,0.00,,2013-02-18 10:01:00,
2013-02-18 04:11:00,19.0,17.0,29.75,NW,322,14.0,24.0,90,0.00,,,0.00,,2013-02-18 10:11:00,
2013-02-18 04:21:00,18.0,16.0,29.75,North,351,14.0,21.0,90,0.00,,,0.00,,2013-02-18 10:21:00,
2013-02-18 04:31:00,18.0,16.0,29.76,NNW,348,15.0,23.0,90,0.00,,,0.00,,2013-02-18 10:31:00,
2013-02-18 04:42:00,18.0,16.0,29.76,NNW,348,15.0,23.0,90,0.00,,,0.00,,2013-02-18 10:42:00,
2013-02-18 04:53:00,17.0,14.0,29.77,NNW,340,17.0,29.0,89,0.00,,,0.00,,2013-02-18 10:53:00,
2013-02-18 05:01:00,17.0,14.0,29.77,NNW,346,18.0,28.0,89,0.00,,,0.00,,2013-02-18 11:01:00,
2013-02-18 05:11:00,17.0,14.0,29.77,NNW,346,18.0,28.0,89,0.00,,,0.00,,2013-02-18 11:11:00,
2013-02-18 05:22:00,17.0,14.0,29.78,North,355,13.0,27.0,89,0.00,,,0.00,,2013-02-18 11:22:00,
2013-02-18 05:32:00,17.0,14.0,29.79,North,355,16.0,25.0,89,0.00,,,0.00,,2013-02-18 11:32:00,
2013-02-18 05:42:00,17.0,14.0,29.79,North,355,16.0,25.0,89,0.00,,,0.00,,2013-02-18 11:42:00,
2013-02-18 05:53:00,16.0,13.0,29.80,NNW,336,14.0,23.0,88,0.00,,,0.00,,2013-02-18 11:53:00,
2013-02-18 06:02:00,16.0,13.0,29.80,NNE,29,15.0,24.0,89,0.00,,,0.00,,2013-02-18 12:02:00,
2013-02-18 06:11:00,16.0,13.0,29.80,NNE,29,15.0,24.0,89,0.00,,,0.00,,2013-02-18 12:11:00,
2013-02-18 06:22:00,16.0,13.0,29.81,NNE,25,12.0,21.0,89,0.00,,,0.00,,2013-02-18 12:22:00,
2013-02-18 06:32:00,16.0,13.0,29.83,North,355,17.0,26.0,89,0.00,,,0.00,,2013-02-18 12:32:00,
2013-02-18 06:42:00,16.0,13.0,29.83,North,355,17.0,26.0,89,0.00,,,0.00,,2013-02-18 12:42:00,
2013-02-18 06:53:00,14.0,11.0,29.83,NNW,344,13.0,22.0,87,0.00,,,0.00,,2013-02-18 12:53:00,
2013-02-18 07:02:00,14.0,11.0,29.83,North,355,15.0,24.0,87,0.00,,,0.00,,2013-02-18 13:02:00,
2013-02-18 07:22:00,14.0,11.0,29.84,North,360,16.0,23.0,88,0.00,,,0.00,,2013-02-18 13:22:00,
2013-02-18 07:32:00,14.0,11.0,29.85,North,355,16.0,30.0,87,0.00,,,0.00,,2013-02-18 13:32:00,
2013-02-18 07:42:00,14.0,11.0,29.85,North,355,16.0,30.0,87,0.00,,,0.00,,2013-02-18 13:42:00,
2013-02-18 07:53:00,14.0,11.0,29.86,NNW,344,15.0,22.0,88,0.00,,,0.00,,2013-02-18 13:53:00,
2013-02-18 08:02:00,13.0,10.0,29.86,NNW,344,15.0,23.0,89,0.00,,,0.00,,2013-02-18 14:02:00,
2013-02-18 08:11:00,13.0,10.0,29.86,NNW,344,15.0,23.0,89,0.00,,,0.00,,2013-02-18 14:11:00,
2013-02-18 08:22:00,13.0,10.0,29.88,NNW,335,14.0,27.0,88,0.00,,,0.00,,2013-02-18 14:22:00,
2013-02-18 08:33:00,14.0,11.0,29.88,NNW,342,15.0,25.0,88,0.00,,,0.00,,2013-02-18 14:33:00,
2013-02-18 08:42:00,14.0,11.0,29.88,NNW,342,15.0,25.0,88,0.00,,,0.00,,2013-02-18 14:42:00,
2013-02-18 08:53:00,13.0,10.0,29.90,North,355,17.0,26.0,87,0.00,,,0.00,,2013-02-18 14:53:00,
2013-02-18 09:02:00,13.0,10.0,29.90,North,351,16.0,26.0,87,0.00,,,0.00,,2013-02-18 15:02:00,
2013-02-18 09:11:00,13.0,10.0,29.90,North,351,16.0,26.0,87,0.00,,,0.00,,2013-02-18 15:11:00,
2013-02-18 09:22:00,13.0,10.0,29.91,North,355,13.0,22.0,87,0.00,,,0.00,,2013-02-18 15:22:00,
2013-02-18 09:32:00,13.0,10.0,29.92,NNW,347,15.0,29.0,86,0.00,,,0.00,,2013-02-18 15:32:00,
2013-02-18 09:42:00,13.0,10.0,29.92,NNW,347,15.0,29.0,86,0.00,,,0.00,,2013-02-18 15:42:00,
2013-02-18 09:52:00,14.0,11.0,29.93,North,355,11.0,22.0,86,0.00,,,0.00,,2013-02-18 15:52:00,
2013-02-18 10:02:00,14.0,10.0,29.94,North,355,12.0,23.0,85,0.00,,,0.00,,2013-02-18 16:02:00,
2013-02-18 10:12:00,14.0,10.0,29.94,North,355,12.0,23.0,85,0.00,,,0.00,,2013-02-18 16:12:00,
2013-02-18 10:22:00,14.0,11.0,29.94,North,355,14.0,20.0,86,0.00,,,0.00,,2013-02-18 16:22:00,
2013-02-18 10:32:00,14.0,11.0,29.94,NNW,343,11.0,21.0,86,0.00,,,0.00,,2013-02-18 16:32:00,
2013-02-18 10:42:00,14.0,11.0,29.94,NNW,343,11.0,21.0,86,0.00,,,0.00,,2013-02-18 16:42:00,
2013-02-18 10:53:00,14.0,10.0,29.95,NNW,346,13.0,26.0,85,0.00,,,0.00,,2013-02-18 16:53:00,
2013-02-18 11:03:00,14.0,10.0,29.96,North,350,12.0,20.0,85,0.00,,,0.00,,2013-02-18 17:03:00,
2013-02-18 11:12:00,14.0,10.0,29.96,North,350,12.0,20.0,85,0.00,,,0.00,,2013-02-18 17:12:00,
2013-02-18 11:22:00,14.0,10.0,29.96,North,350,15.0,23.0,83,0.00,,,0.00,,2013-02-18 17:22:00,
2013-02-18 11:32:00,13.0,9.0,29.96,NNW,334,14.0,26.0,82,0.00,,,0.00,,2013-02-18 17:32:00,
2013-02-18 11:42:00,13.0,9.0,29.96,NNW,334,14.0,26.0,82,0.00,,,0.00,,2013-02-18 17:42:00,
2013-02-18 11:53:00,14.0,10.0,29.97,NNW,348,16.0,23.0,83,0.00,,,0.00,,2013-02-18 17:53:00,
2013-02-18 12:02:00,14.0,10.0,29.97,North,350,11.0,21.0,85,0.00,,,0.00,,2013-02-18 18:02:00,
2013-02-18 12:12:00,14.0,10.0,29.97,North,350,11.0,21.0,85,0.00,,,0.00,,2013-02-18 18:12:00,
2013-02-18 12:22:00,14.0,10.0,29.97,NNE,17,15.0,22.0,83,0.00,,,0.00,,2013-02-18 18:22:00,
2013-02-18 12:32:00,14.0,10.0,29.98,North,355,15.0,23.0,83,0.00,,,0.00,,2013-02-18 18:32:00,
2013-02-18 12:42:00,14.0,10.0,29.98,North,355,15.0,23.0,83,0.00,,,0.00,,2013-02-18 18:42:00,
2013-02-18 12:53:00,13.0,9.0,29.98,NNE,15,13.0,25.0,83,0.00,,,0.00,,2013-02-18 18:53:00,
2013-02-18 13:02:00,13.0,8.0,29.98,North,5,14.0,27.0,81,0.00,,,0.00,,2013-02-18 19:02:00,
2013-02-18 13:12:00,13.0,8.0,29.98,North,5,14.0,27.0,81,0.00,,,0.00,,2013-02-18 19:12:00,
2013-02-18 13:22:00,14.0,10.0,29.98,NNE,15,13.0,24.0,82,0.00,,,0.00,,2013-02-18 19:22:00,
2013-02-18 13:33:00,14.0,9.0,29.98,NNW,338,13.0,28.0,81,0.00,,,0.00,,2013-02-18 19:33:00,
2013-02-18 13:42:00,14.0,9.0,29.98,NNW,338,13.0,28.0,81,0.00,,,0.00,,2013-02-18 19:42:00,
2013-02-18 13:53:00,14.0,8.0,29.99,NNW,346,18.0,28.0,77,0.00,,,0.00,,2013-02-18 19:53:00,
2013-02-18 14:02:00,14.0,9.0,29.99,NNW,336,14.0,25.0,80,0.00,,,0.00,,2013-02-18 20:02:00,
2013-02-18 14:12:00,14.0,9.0,29.99,NNW,336,14.0,25.0,80,0.00,,,0.00,,2013-02-18 20:12:00,
2013-02-18 14:23:00,13.0,7.0,29.99,North,349,14.0,27.0,78,0.00,,,0.00,,2013-02-18 20:23:00,
2013-02-18 14:33:00,12.0,6.0,30.00,North,355,15.0,25.0,78,0.00,,,0.00,,2013-02-18 20:33:00,
2013-02-18 14:42:00,12.0,6.0,30.00,North,355,15.0,25.0,78,0.00,,,0.00,,2013-02-18 20:42:00,
2013-02-18 14:53:00,12.0,6.0,30.01,North,360,15.0,25.0,78,0.00,,,0.00,,2013-02-18 20:53:00,
2013-02-18 15:03:00,12.0,7.0,30.01,NNW,333,15.0,23.0,79,0.00,,,0.00,,2013-02-18 21:03:00,
2013-02-18 15:12:00,12.0,7.0,30.01,NNW,333,15.0,23.0,79,0.00,,,0.00,,2013-02-18 21:12:00,
2013-02-18 15:22:00,12.0,7.0,30.02,NNW,342,13.0,26.0,79,0.00,,,0.00,,2013-02-18 21:22:00,
2013-02-18 15:32:00,11.0,6.0,30.02,NNW,328,17.0,25.0,78,0.00,,,0.00,,2013-02-18 21:32:00,
2013-02-18 15:42:00,11.0,6.0,30.02,NNW,328,17.0,25.0,78,0.00,,,0.00,,2013-02-18 21:42:00,
2013-02-18 15:53:00,11.0,6.0,30.03,North,355,15.0,24.0,79,0.00,,,0.00,,2013-02-18 21:53:00,
2013-02-18 16:02:00,11.0,6.0,30.03,North,355,13.0,27.0,81,0.00,,,0.00,,2013-02-18 22:02:00,
2013-02-18 16:12:00,11.0,6.0,30.04,North,349,12.0,22.0,81,0.00,,,0.00,,2013-02-18 22:12:00,
2013-02-18 16:22:00,11.0,6.0,30.04,North,349,12.0,22.0,81,0.00,,,0.00,,2013-02-18 22:22:00,
2013-02-18 16:33:00,10.0,5.0,30.05,North,355,11.0,24.0,79,0.00,,,0.00,,2013-02-18 22:33:00,
2013-02-18 16:43:00,10.0,5.0,30.05,North,355,11.0,24.0,79,0.00,,,0.00,,2013-02-18 22:43:00,
2013-02-18 16:53:00,10.0,5.0,30.05,NNW,333,13.0,21.0,80,0.00,,,0.00,,2013-02-18 22:53:00,
2013-02-18 17:02:00,10.0,5.0,30.06,NNW,342,14.0,23.0,79,0.00,,,0.00,,2013-02-18 23:02:00,
2013-02-18 17:12:00,10.0,5.0,30.06,NNW,342,14.0,23.0,79,0.00,,,0.00,,2013-02-18 23:12:00,
2013-02-18 17:22:00,10.0,5.0,30.06,North,355,14.0,24.0,79,0.00,,,0.00,,2013-02-18 23:22:00,
2013-02-18 17:33:00,9.0,5.0,30.07,North,9,14.0,22.0,83,0.00,,,0.00,,2013-02-18 23:33:00,
2013-02-18 17:42:00,9.0,5.0,30.07,North,9,14.0,22.0,83,0.00,,,0.00,,2013-02-18 23:42:00,
2013-02-18 17:53:00,8.0,4.0,30.08,North,5,11.0,22.0,82,0.00,,,0.00,,2013-02-18 23:53:00,
2013-02-18 18:02:00,7.0,3.0,30.09,NNW,347,14.0,23.0,82,0.00,,,0.00,,2013-02-19 00:02:00,
2013-02-18 18:12:00,7.0,3.0,30.09,NNW,347,14.0,23.0,82,0.00,,,0.00,,2013-02-19 00:12:00,
2013-02-18 18:22:00,7.0,2.0,30.10,North,360,17.0,27.0,81,0.00,,,0.00,,2013-02-19 00:22:00,
2013-02-18 18:33:00,6.0,1.0,30.10,North,355,15.0,23.0,80,0.00,,,0.00,,2013-02-19 00:33:00,
2013-02-18 18:43:00,6.0,1.0,30.10,North,355,15.0,23.0,80,0.00,,,0.00,,2013-02-19 00:43:00,
2013-02-18 18:54:00,6.0,1.0,30.11,North,5,15.0,25.0,79,0.00,,,0.00,,2013-02-19 00:54:00,
2013-02-18 19:03:00,5.0,0.0,30.11,North,355,15.0,24.0,80,0.00,,,0.00,,2013-02-19 01:03:00,
2013-02-18 19:13:00,5.0,0.0,30.11,North,355,15.0,24.0,80,0.00,,,0.00,,2013-02-19 01:13:00,
2013-02-18 19:24:00,5.0,1.0,30.12,NNW,342,13.0,23.0,82,0.00,,,0.00,,2013-02-19 01:24:00,
2013-02-18 19:34:00,5.0,1.0,30.13,North,355,14.0,26.0,82,0.00,,,0.00,,2013-02-19 01:34:00,
2013-02-18 19:43:00,5.0,1.0,30.13,North,355,14.0,26.0,82,0.00,,,0.00,,2013-02-19 01:43:00,
2013-02-18 19:56:00,4.0,-1.0,30.13,North,5,13.0,29.0,80,0.00,,,0.00,,2013-02-19 01:56:00,
2013-02-18 20:03:00,4.0,-1.0,30.14,North,9,11.0,25.0,80,0.00,,,0.00,,2013-02-19 02:03:00,
2013-02-18 20:13:00,4.0,-1.0,30.14,North,9,11.0,25.0,80,0.00,,,0.00,,2013-02-19 02:13:00,
2013-02-18 20:23:00,4.0,-1.0,30.14,NNE,16,10.0,17.0,80,0.00,,,0.00,,2013-02-19 02:23:00,
2013-02-18 20:34:00,4.0,-1.0,30.15,North,355,10.0,22.0,81,0.00,,,0.00,,2013-02-19 02:34:00,
2013-02-18 20:42:00,4.0,-1.0,30.15,North,355,10.0,22.0,81,0.00,,,0.00,,2013-02-19 02:42:00,
2013-02-18 20:55:00,4.0,-1.0,30.15,North,355,10.0,22.0,81,0.00,,,0.00,,2013-02-19 02:55:00,
2013-02-18 21:06:00,3.0,-1.0,30.16,North,355,10.0,18.0,81,0.00,,,0.00,,2013-02-19 03:06:00,
2013-02-18 21:14:00,3.0,-1.0,30.16,North,355,10.0,18.0,81,0.00,,,0.00,,2013-02-19 03:14:00,
2013-02-18 21:23:00,3.0,-1.0,30.16,NNW,329,10.0,16.0,82,0.00,,,0.00,,2013-02-19 03:23:00,
2013-02-18 21:33:00,3.0,-1.0,30.16,North,360,10.0,17.0,81,0.00,,,0.00,,2013-02-19 03:33:00,
2013-02-18 21:44:00,3.0,-1.0,30.16,North,360,10.0,17.0,81,0.00,,,0.00,,2013-02-19 03:44:00,
2013-02-18 21:54:00,2.0,-2.0,30.16,NNE,17,9.0,17.0,81,0.00,,,0.00,,2013-02-19 03:54:00,
2013-02-18 22:02:00,2.0,-2.0,30.17,North,5,8.0,15.0,81,0.00,,,0.00,,2013-02-19 04:02:00,
2013-02-18 22:14:00,2.0,-2.0,30.17,North,5,8.0,15.0,81,0.00,,,0.00,,2013-02-19 04:14:00,
2013-02-18 22:23:00,1.0,-3.0,30.17,North,360,9.0,13.0,81,0.00,,,0.00,,2013-02-19 04:23:00,
2013-02-18 22:33:00,1.0,-3.0,30.18,NNW,345,9.0,16.0,81,0.00,,,0.00,,2013-02-19 04:33:00,
2013-02-18 22:43:00,1.0,-3.0,30.18,NNW,345,9.0,16.0,81,0.00,,,0.00,,2013-02-19 04:43:00,
2013-02-18 23:02:00,0.0,-4.0,30.19,North,360,11.0,16.0,81,0.00,,,0.00,,2013-02-19 05:02:00,
2013-02-18 23:12:00,0.0,-4.0,30.19,North,360,11.0,16.0,81,0.00,,,0.00,,2013-02-19 05:12:00,
2013-02-18 23:22:00,0.0,-4.0,30.19,North,355,8.0,14.0,81,0.00,,,0.00,,2013-02-19 05:22:00,
2013-02-18 23:32:00,-1.0,-5.0,30.20,North,5,7.0,15.0,81,0.00,,,0.00,,2013-02-19 05:32:00,
2013-02-18 23:43:00,-1.0,-5.0,30.20,North,5,7.0,15.0,81,0.00,,,0.00,,2013-02-19 05:43:00,
2013-02-18 23:52:00,-1.0,-6.0,30.21,North,351,6.0,12.0,80,0.00,,,0.00,,2013-02-19 05:52:00,